SCP
0 0 0 0 0 0 0 0 0 0 0 0 0 0 0 0 0 0 0 0 0 0 0 0 0 0 0 0 0 0 0 0 0 0 0 0 0 0 0 0 0 0 0
0 0 0 0 0 0 0 0 0 0 0 0 0 0 0 0 0 0 0 0 0 0 0 0 0 0 0 0 0 0 0 0 0 0 0 0 0 0 0 0 0 0 0
0 0 0 0 0 0 0 0 0 0 0 0 0 0 0 0 0 0 0 0 0 0 0 0 0 0 0 0 0 0 0 0 0 0 0 0 0 0 0 0 0 0 0
0 0 0 0 0 0 0 0 0 0 0 0 0 0 0 0 0 0 0 0 0 0 0 0 0 0 0 0 0 0 0 0 0 0 0 0 0 0 0 0 0 0 0
0 0 0 0 0 0 0 0 0 0 0 0 0 0 0 0 0 0 0 0 0 0 0 0 0 0 0 0 0 0 0 0 0 0 0 0 0 0 0 0 0 0 0
0 0 0 0 0 0 0 0 0 0 0 0 0 0 0 0 0 0 0 0 0 0 0 0 0 0 0 0 0 0 0 0 0 0 0 0 0 0 0 0 0 0 0
0 0 0 0 0 0 0 0 0 0 0 0 0 0 0 0 0 0 0 0 0 0 0 0 0 0 0 0 0 0 0 0 0 0 0 0 0 0 0 0 0 0 0
0 0 0 0 0 0 0 0 0 0 0 0 0 0 0 0 0 0 0 0 0 0 0 0 0 0 0 0 0 0 0 0 0 0 0 0 0 0 0 0 0 0 0
0 0 0 0 0 0 0 0 0 0 0 0 0 0 0 0 0 0 0 0 0 0 0 0 0 0 0 0 0 0 0 0 0 0 0 0 0 0 0 0 0 0 0
0 0 0 0 0 0 0 0 0 0 0 0 0 0 0 0 0 0 0 0 0 0 0 0 0 0 0 0 0 0 0 0 0 0 0 0 0 0 0 0 0 0 0
0 0 0 0 0 0 0 0 0 0 0 0 0 0 0 0 0 0 0 0 0 0 0 0 0 0 0 0 0 0 0 0 0 0 0 0 0 0 0 0 0 0 0
0 0 0 0 0 0 0 0 0 0 0 0 0 0 0 0 0 0 0 0 0 0 0 0 0 0 0 0 0 0 0 0 0 0 0 0 0 0 0 0 0 0 0
0 0 0 0 0 0 0 0 0 0 0 0 0 0 0 0 0 0 0 0 0 0 0 0 0 0 0 0 0 0 0 0 0 0 0 0 0 0 0 0 0 0 0
0 0 0 0 0 0 0 0 0 0 0 0 0 0 0 0 0 0 0 0 0 0 0 0 0 0 0 0 0 0 0 0 0 0 0 0 0 0 0 0 0 0 0
0 0 0 0 0 0 0 0 0 0 0 0 0 0 0 0 0 0 0 0 0 0 0 0 0 0 0 0 0 0 0 0 0 0 0 0 0 0 0 0 0 0 0
0 0 0 0 0 0 0 0 0 0 0 0 0 0 0 0 0 0 0 0 0 0 0 0 0 0 0 0 0 0 0 0 0 0 0 0 0 0 0 0 0 0 0
0 0 0 0 0 0 0 0 0 0 0 0 0 0 0 0 0 0 0 0 0 0 0 0 0 0 0 0 0 0 0 0 0 0 0 0 0 0 0 0 0 0 0
0 0 0 0 0 0 0 0 0 0 0 0 0 0 0 0 0 0 0 0 0 0 0 0 0 0 0 0 0 0 0 0 0 0 0 0 0 0 0 0 0 0 0
0 0 0 0 0 0 0 0 0 0 0 0 0 0 0 0 0 0 0 0 0 0 0 0 0 0 0 0 0 0 0 0 0 0 0 0 0 0 0 0 0 0 0
0 0 0 0 0 0 0 0 0 0 0 0 0 0 0 0 0 0 0 0 0 0 0 0 0 0 0 0 0 0 0 0 0 0 0 0 0 0 0 0 0 0 0
0 0 0 0 0 0 0 0 0 0 0 0 0 0 0 0 0 0 0 0 0 0 0 0 0 0 0 0 0 0 0 0 0 0 0 0 0 0 0 0 0 0 0
0 0 0 0 0 0 0 0 0 0 0 0 0 0 0 0 0 0 0 0 0 0 0 0 0 0 0 0 0 0 0 0 0 0 0 0 0 0 0 0 0 0 0
0 0 0 0 0 0 0 0 0 0 0 0 0 0 0 0 0 0 0 0 0 0 0 0 0 0 0 0 0 0 0 0 0 0 0 0 0 0 0 0 0 0 0
0 0 0 0 0 0 0 0 0 0 0 0 0 0 0 0 0 0 0 0 0 0 0 0 0 0 0 0 0 0 0 0 0 0 0 0 0 0 0 0 0 0 0
0 0 0 0 0 0 0 0 0 0 0 0 0 0 0 0 0 0 0 0 0 0 0 0 0 0 0 0 0 0 0 0 0 0 0 0 0 0 0 0 0 0 0
0 0 0 0 0 0 0 0 0 0 0 0 0 0 0 0 0 0 0 0 0 0 0 0 0 0 0 0 0 0 0 0 0 0 0 0 0 0 0 0 0 0 0
Wind_Speed
2 3 4 4 6 6 7 7 7 7 7 8 8 8 8 8 8 9 9 9 9 9 9 9 9 10 10 10 10 10 10 9 9 8 8 8 8 8 8 8 7 7 9
3 3 4 5 6 6 7 7 7 7 9 9 9 9 9 8 9 8 9 9 9 9 9 9 9 10 10 10 10 10 10 10 9 9 8 9 10 10 9 8 6 6 9
3 3 4 5 6 6 7 7 8 9 10 10 10 10 9 9 9 9 9 9 10 10 10 10 9 10 10 10 10 10 10 10 9 6 5 6 9 9 9 9 8 8 8
4 4 5 6 6 7 8 9 9 10 11 11 11 10 10 10 10 10 10 10 10 10 10 10 10 10 10 10 10 10 10 9 7 3 4 6 7 9 8 8 8 8 7
5 4 7 6 7 9 9 9 10 11 11 11 11 12 12 12 12 11 11 11 11 10 10 10 10 10 10 10 10 10 9 8 5 4 6 6 6 9 8 8 8 8 7
6 6 8 7 9 9 9 10 11 11 12 12 11 11 12 12 12 12 12 12 12 11 11 10 10 10 10 10 10 9 8 5 4 6 6 6 6 8 8 8 8 8 7
6 6 8 8 9 10 10 11 11 11 12 12 11 11 11 12 12 12 12 13 13 12 12 11 10 10 10 10 9 8 7 3 5 6 5 6 7 8 8 7 8 7 7
6 6 7 8 9 10 10 11 11 11 11 12 12 12 12 12 12 12 13 13 13 12 12 11 10 10 10 10 9 8 6 3 5 5 6 6 8 8 7 7 7 7 7
6 6 5 6 8 9 10 11 12 12 12 12 12 12 12 12 12 12 13 13 12 11 11 11 11 10 10 9 9 7 6 4 4 4 5 5 8 8 8 7 7 7 7
6 5 5 6 6 7 8 11 11 11 12 12 12 12 11 11 11 11 12 12 12 11 11 11 11 10 9 9 8 6 3 1 5 5 4 6 8 8 8 7 7 7 7
5 5 4 5 6 6 7 8 8 9 9 8 8 8 5 6 8 8 12 12 12 11 11 11 10 9 8 8 7 4 1 3 5 4 5 8 8 8 8 8 8 8 8
5 5 4 4 5 5 5 5 4 5 5 5 5 5 5 6 6 7 11 11 10 10 9 9 7 5 3 4 4 1 3 4 4 4 6 8 8 8 8 8 9 8 8
5 5 4 4 4 4 3 3 3 3 3 4 5 6 4 5 4 4 4 5 6 5 6 5 4 5 5 5 4 4 4 4 3 4 6 8 8 8 9 9 9 8 8
4 4 4 4 4 4 3 3 3 2 2 3 4 5 4 3 3 4 3 4 4 3 4 4 4 6 6 6 5 5 5 3 3 3 6 8 8 8 8 9 9 9 9
4 4 4 4 3 4 4 2 3 3 3 4 3 3 4 3 3 3 3 3 4 4 4 4 4 6 6 6 6 6 6 6 5 5 5 9 8 8 8 9 9 9 9
5 4 4 4 3 3 3 3 3 3 3 3 3 3 4 3 3 3 4 4 4 3 3 3 4 4 4 5 5 6 6 5 6 6 5 7 9 9 9 9 9 8 9
4 5 5 4 3 3 3 3 2 2 2 3 3 3 4 3 3 3 3 3 3 3 3 3 5 4 4 4 5 5 5 5 5 6 5 4 6 9 10 9 8 8 9
4 5 5 4 4 4 3 3 2 2 2 2 2 2 3 3 3 3 3 3 3 3 2 3 3 3 3 3 4 4 4 4 5 5 5 5 5 4 7 9 8 8 8
5 5 6 5 4 4 3 3 2 2 2 2 2 2 2 3 3 3 2 2 3 2 2 2 2 2 3 3 3 3 3 4 4 4 5 6 5 5 5 7 8 8 8
5 5 6 5 4 3 3 2 2 2 2 2 2 2 2 2 2 2 2 2 2 2 2 2 3 2 2 2 2 3 3 3 3 4 4 4 4 4 4 4 4 6 8
6 5 5 5 5 4 3 2 2 2 2 2 1 2 2 1 2 2 1 2 1 2 2 2 2 3 2 1 2 3 3 3 3 3 3 3 3 3 3 4 3 3 3
6 6 5 6 6 5 3 2 1 2 2 2 1 2 2 1 1 1 1 1 1 1 1 1 1 1 2 0 1 1 2 3 2 2 2 2 2 2 3 3 3 3 3
6 7 5 6 7 6 5 3 2 2 2 2 2 2 2 1 1 1 1 1 1 1 1 1 1 1 0 1 1 2 1 1 1 2 2 1 1 2 2 2 3 3 3
7 6 6 6 6 7 6 5 4 3 3 3 2 2 2 2 2 1 1 1 1 1 1 1 1 1 1 1 1 1 2 2 1 1 2 1 1 1 1 1 1 2 2
6 6 6 6 6 6 6 6 5 4 3 2 2 3 3 2 2 2 1 1 2 1 2 1 1 2 2 2 1 1 1 1 2 1 1 1 1 1 1 1 1 1 2
6 6 6 6 6 6 6 6 6 5 4 3 4 3 3 2 2 2 2 2 2 2 2 2 2 2 2 2 2 2 2 1 1 1 1 1 1 1 1 1 0 0 1
Wind_Direction
71 54 40 33 43 50 54 62 69 75 79 81 83 82 84 84 80 81 85 88 89 91 91 93 97 98 96 94 93 94 95 93 93 94 94 93 93 96 100 114 134 127 123
81 71 53 41 49 51 54 65 72 72 78 80 79 77 79 83 84 85 88 91 93 96 96 94 94 95 94 92 90 89 89 88 89 91 97 99 91 89 92 95 92 104 119
90 79 84 50 51 54 56 65 75 76 78 77 76 75 75 80 83 84 87 90 93 95 95 95 93 93 92 90 87 85 84 84 84 91 106 101 95 87 89 93 96 104 112
87 79 70 56 59 63 62 68 77 81 78 75 73 68 73 81 81 80 82 86 88 90 90 92 93 94 92 89 87 83 82 80 78 88 92 85 91 91 91 93 97 101 105
87 81 75 62 67 68 68 75 80 81 80 75 72 68 73 78 78 78 79 82 84 85 86 88 90 90 91 90 87 86 85 84 85 80 76 78 82 88 90 91 98 97 98
91 83 79 62 68 70 73 77 80 79 79 77 74 74 74 76 77 78 79 80 80 82 80 81 86 87 89 90 88 85 85 88 101 78 77 81 85 88 87 88 96 99 98
94 89 87 72 71 70 75 79 78 77 78 79 75 75 75 77 79 79 78 78 78 77 77 76 80 83 83 84 84 81 76 67 78 81 80 79 79 85 86 87 94 99 100
96 93 96 89 76 73 73 76 76 77 79 78 76 73 74 75 76 79 79 77 76 74 73 72 74 77 78 79 79 75 61 23 84 82 80 79 76 80 86 87 90 95 100
97 96 94 97 99 90 78 73 72 72 75 77 76 74 73 72 74 77 80 78 78 77 76 74 72 71 73 75 75 74 65 30 68 75 83 81 86 86 84 86 89 92 99
103 98 97 97 90 92 94 81 75 72 71 73 74 72 74 81 82 79 82 77 76 74 72 72 72 71 73 71 70 68 67 78 67 72 70 79 84 85 84 86 86 88 90
108 103 102 101 97 93 89 92 90 86 80 86 86 84 87 83 82 84 72 73 71 70 70 70 70 72 79 79 66 58 74 72 75 66 63 73 82 84 82 81 80 82 81
124 116 109 105 102 100 95 95 87 87 88 80 78 82 77 76 71 74 83 75 75 75 78 74 75 84 68 83 89 82 73 77 76 77 71 75 84 85 82 79 79 81 80
122 120 117 117 109 104 101 94 82 76 79 81 79 82 82 82 86 79 83 88 82 79 74 83 87 68 67 66 64 68 60 59 67 73 74 74 79 82 82 79 76 77 82
129 128 123 121 114 106 100 95 97 92 81 79 80 83 84 78 72 75 73 69 67 66 62 58 58 69 67 67 65 65 65 57 65 76 75 73 76 81 80 79 76 76 78
145 143 131 131 122 111 100 100 96 90 87 90 82 87 86 82 75 77 79 73 67 66 68 60 61 65 63 60 59 57 57 57 66 75 81 73 69 71 76 78 78 76 74
157 152 141 145 134 125 122 121 102 96 99 91 88 89 92 84 77 73 76 73 66 63 64 69 74 68 63 60 59 58 55 56 63 74 77 83 70 67 69 72 73 74 73
161 157 146 149 146 139 128 116 107 102 100 94 90 92 94 88 85 81 75 76 75 75 75 72 77 73 72 73 68 60 58 55 63 68 70 68 80 76 66 65 67 68 67
168 160 151 156 154 142 136 138 123 110 99 95 91 86 95 97 84 79 77 77 75 74 73 79 80 81 76 70 69 65 67 64 62 63 71 72 65 70 76 65 63 64 63
181 169 160 160 153 145 145 145 129 118 109 100 94 87 92 96 94 87 74 76 79 79 76 78 73 75 80 74 78 75 69 70 65 62 64 63 67 68 75 82 74 62 58
187 177 164 154 151 145 149 153 136 129 131 117 106 101 91 92 93 91 97 90 85 84 77 79 88 81 80 92 96 89 80 85 78 61 58 58 56 62 67 74 83 82 65
188 183 167 163 156 147 149 160 160 154 152 146 140 126 120 116 107 104 108 99 90 88 83 89 93 107 98 101 137 126 117 95 85 82 66 58 61 54 63 74 67 66 88
183 179 174 174 167 163 156 161 168 153 169 156 165 160 155 138 127 121 158 141 126 105 110 98 88 94 101 95 291 183 152 147 119 93 91 74 73 75 57 61 75 72 59
188 184 183 179 171 169 162 159 153 147 168 169 178 181 183 187 180 192 220 190 176 194 175 175 166 199 180 149 337 321 295 103 129 131 102 82 72 80 77 63 64 69 70
190 186 187 185 179 176 172 178 181 191 193 197 193 185 190 199 209 217 214 229 219 225 211 224 221 240 249 212 165 309 341 9 278 148 144 119 99 104 82 86 76 71 72
188 186 188 186 183 180 183 184 198 208 207 196 198 200 204 195 206 206 214 225 231 235 238 241 242 247 254 259 238 205 184 200 271 280 178 153 159 154 128 96 88 62 66
184 185 188 191 187 184 190 194 202 208 211 205 208 210 210 196 200 207 217 220 229 235 236 238 238 241 256 263 256 240 239 239 243 254 249 204 197 152 163 145 153 75 84